[[{"header":{"parameterUnit":"m.s-1","parameterCategory":1,"la1":30.2991,"la2":30.254,"lo1":-89.0895,"lo2":-89.0444,"dy":0.0017,"dx":0.0017,"nx":28,"ny":28,"refTime":"2024-07-27T21:00:00:Z","depth":0,"parameterNumber":2,"parameterNumberName":"U-component_of_WINDS"},"data":[0,0,0,0,0,0,0,0,0,0,0,0,0,0,0,0,0,0,0,0,0,0,0,0,0,0,0,0,0,0,0,0,0,0,0,0,0,0,0,0,0,0,0,0,0,0,0,0,0,0,0,0,0,0,0,0,0,0,0.9119,0.9117,0,0.9009,0.9008,0.9007,0.8897,0.8896,0.8894,0.8893,0.8779,0.8777,0.8775,0,0,0,0,0,0,0,0,0,0,0,0,0,0.9232,0.923,0.9119,0.9117,0.9116,0.9009,0.9008,0.9006,0.8898,0.8896,0.8894,0.8892,0.8779,0.8777,0.8775,0,0,0,0,0,0,0,0,0,0,0,0,0,0.9159,0.923,0.9119,0.9049,0.9042,0.901,0.9008,0.9006,0.8898,0.8896,0.8894,0.8892,0.878,0.8777,0.8775,0.8802,0,0,0.8767,0.8766,0,0,0,0,0,0,0,0,0.9163,0.9154,0.9061,0.9054,0.9045,0.8965,0.9005,0.8938,0.8899,0.8952,0.8893,0.8891,0.8842,0.8834,0.8818,0.8797,0.8792,0.8767,0.8765,0.8764,0.8763,0,0,0,0,0,0,0,0.9168,0.9159,0.9075,0.9059,0.905,0.9022,0.901,0.8992,0.8911,0.8948,0.8939,0.8928,0.8837,0.8821,0.8815,0.879,0.8767,0.8765,0.8763,0.8762,0.8786,0.8788,0,0,0,0,0,0,0.9184,0.9164,0.9079,0.9072,0.91,0.9022,0.9008,0.8993,0.8911,0.8896,0.893,0.8923,0.8827,0.8818,0.881,0.8837,0.8764,0.8762,0.876,0.8784,0.8787,0.8789,0,0,0,0,0,0,0.9187,0.9178,0.9083,0.9115,0.9101,0.9022,0.9006,0.8992,0.8975,0.8897,0.8882,0.8928,0.8825,0.8814,0.8805,0.8832,0.8761,0.8758,0.8782,0.8785,0.8788,0.8892,0,0,0,0,0,0,0.9191,0.9179,0.9189,0.9117,0.91,0.9081,0.9008,0.8991,0.8971,0.8962,0.8892,0.8878,0.8822,0.881,0.8803,0.8827,0.8756,0.8779,0.8783,0.8787,0.8886,0.8899,0.8909,0,0,0,0,0,0.9195,0.9222,0.919,0.9181,0.9111,0.9083,0.9073,0.9009,0.8974,0.8983,0.8933,0.888,0.883,0.881,0.8801,0.8825,0.8777,0.8782,0.8787,0.8881,0.8896,0.8909,0,0,0,0,0,0,0.9299,0.9211,0.9175,0.918,0.914,0.9064,0.9074,0.9027,0.8995,0.8987,0.8908,0.8893,0.8894,0.8858,0.8837,0.8848,0.8796,0.88,0.8871,0.8885,0.8896,0.8905,0.8754,0,0,0,0,0,0.9323,0.9308,0.9231,0.9243,0.9225,0.9153,0.9138,0.9092,0.9047,0.9029,0.8979,0.8936,0.8911,0.8896,0.8868,0.888,0.8864,0.8893,0.8904,0.8914,0.8918,0.8922,0.8935,0.8805,0.8805,0.8805,0,0,0.9371,0.9321,0.9316,0.9263,0.9226,0.9212,0.914,0.9127,0.9116,0.9027,0.9016,0.8978,0.8925,0.8928,0.8926,0.8898,0.895,0.8921,0.8929,0.8927,0.8929,0.8941,0.8952,0.8809,0.8808,0.8807,0,0,0.9452,0.9413,0.9418,0.9384,0.933,0.9282,0.9284,0.9216,0.9187,0.9175,0.9109,0.9093,0.9051,0.9017,0.8994,0.9063,0.9013,0.9056,0.9117,0.9122,0.9133,0.9141,0.9166,0.9176,0.906,0.9061,0.9061,0,0.9519,0.9495,0.9427,0.9419,0.9398,0.9318,0.9323,0.9292,0.9232,0.9219,0.9188,0.9135,0.9093,0.9087,0.9104,0.9088,0.9087,0.9064,0.9137,0.9145,0.9152,0.9175,0.9184,0.9066,0.9065,0.9065,0.9064,0,0.958,0.9565,0.9575,0.9521,0.95,0.9499,0.943,0.9417,0.9374,0.9329,0.9318,0.9266,0.9227,0.9222,0.9179,0.9209,0.9194,0.9152,0.9098,0.9171,0.9191,0.9199,0.9074,0.9072,0.907,0.9069,0,0,0.9722,0.9631,0.9636,0.961,0.9546,0.9532,0.9527,0.949,0.9481,0.9442,0.9436,0.9403,0.9363,0.9337,0.9289,0.9294,0.9353,0.925,0.9248,0.9272,0.9384,0.9416,0.9428,0.9319,0.9321,0.9322,0.9388,0,0.9792,0.9779,0.9719,0.9724,0.9709,0.9634,0.9629,0.9589,0.9548,0.9528,0.9482,0.946,0.941,0.9393,0.9395,0.9346,0.9374,0.934,0.9312,0.9312,0.9328,0.9438,0.9472,0.9537,0.9396,0.9397,0.9398,0,0.9871,0.9839,0.9844,0.978,0.9771,0.9769,0.973,0.9713,0.9666,0.9635,0.9607,0.9554,0.9544,0.9495,0.948,0.9458,0.9443,0.9417,0.9418,0.9413,0.936,0.9436,0.9556,0.9567,0.941,0.9409,0.9408,0,0.9975,0.9933,0.993,0.991,0.9836,0.9836,0.9805,0.9756,0.9738,0.9703,0.9691,0.9656,0.9637,0.9611,0.9549,0.9519,0.9542,0.9487,0.9516,0.9518,0.9524,0.9524,0.9644,0.9515,0.9514,0.9514,0.9514,0,1.006,1.0065,0.9976,0.9974,0.9978,0.9908,0.9914,0.9875,0.9832,0.9821,0.9754,0.9745,0.9664,0.9646,0.9598,0.9593,0.9585,0.956,0.9547,0.9566,0.9569,0.9555,0.9549,0.9517,0.9516,0.9516,0.9515,0,1.0176,1.0117,1.0109,1.004,1.0022,1.0029,0.9969,0.9964,0.9919,0.9906,0.9899,0.9828,0.9803,0.974,0.9698,0.9665,0.9674,0.965,0.969,0.9682,0.9715,0.9713,0.9829,0.9841,0.9705,0.9706,0.9708,0,1.0234,1.0236,1.0168,1.0157,1.0129,1.0111,1.0093,1.0024,1.0007,0.9954,0.9956,0.9926,0.9899,0.9862,0.9807,0.9774,0.9749,0.9792,0.9744,0.9763,0.975,0.9751,0.9751,0.9803,0.9805,0.9806,0.9807,0,1.0342,1.0313,1.029,1.0257,1.0237,1.0207,1.0173,1.0168,1.009,1.0075,1.005,1.0028,0.9986,0.9958,0.9917,0.9884,0.9833,0.9823,0.9828,0.9848,0.9871,0.9859,0.972,0.9821,0.9819,0.9819,0.9818,0.9817,1.0431,1.043,1.0383,1.0359,1.0327,1.0297,1.029,1.0245,1.0223,1.0184,1.0144,1.0123,1.0076,1.0017,0.9987,0.9969,0.9943,0.995,0.9952,0.9955,0.9963,0.9875,0.9961,0.9961,0.9961,0.996,0.996,0,1.0536,1.0503,1.0482,1.0437,1.0419,1.0374,1.0335,1.0322,1.0305,1.0266,1.0241,1.0212,1.0184,1.0126,1.0093,1.009,1.0066,1.0083,1.0083,1.0076,0.9989,0.9988,1.0103,1.0103,1.0103,1.0103,1.0103,1.0103,1.0589,1.0586,1.0551,1.0532,1.0497,1.0477,1.0458,1.0431,1.0399,1.0371,1.0347,1.0311,1.0264,1.0227,1.0199,1.0183,1.0174,1.0199,1.0176,1.0096,1.0082,1.0069,1.0068,1.0198,1.0198,1.0264,1.0265,1.0265]},{"header":{"parameterUnit":"m.s-1","parameterCategory":1,"la1":30.2991,"la2":30.254,"lo1":-89.0895,"lo2":-89.0444,"dy":0.0017,"dx":0.0017,"nx":28,"ny":28,"refTime":"2024-07-27T21:00:00:Z","depth":0,"parameterNumber":3,"parameterNumberName":"V-component_of_WINDS"},"data":[0,0,0,0,0,0,0,0,0,0,0,0,0,0,0,0,0,0,0,0,0,0,0,0,0,0,0,0,0,0,0,0,0,0,0,0,0,0,0,0,0,0,0,0,0,0,0,0,0,0,0,0,0,0,0,0,0,0,1.9449,1.9449,0,1.9461,1.9461,1.9461,1.9476,1.9476,1.9477,1.9477,1.9487,1.9487,1.9487,0,0,0,0,0,0,0,0,0,0,0,0,0,1.9439,1.9439,1.9449,1.9449,1.9449,1.9461,1.9461,1.9461,1.9476,1.9476,1.9477,1.9477,1.9487,1.9487,1.9487,0,0,0,0,0,0,0,0,0,0,0,0,0,1.9446,1.9439,1.9449,1.9458,1.9459,1.9461,1.9461,1.9461,1.9476,1.9476,1.9477,1.9477,1.9487,1.9487,1.9487,1.948,0,0,1.9488,1.9488,0,0,0,0,0,0,0,0,1.9446,1.9447,1.9457,1.9458,1.9459,1.9467,1.9461,1.9467,1.9476,1.947,1.9477,1.9477,1.948,1.9481,1.9482,1.9481,1.9481,1.9488,1.9488,1.9488,1.9488,0,0,0,0,0,0,0,1.9445,1.9446,1.9454,1.9457,1.9458,1.9462,1.9463,1.9462,1.9473,1.947,1.9471,1.9473,1.9481,1.9482,1.9483,1.9481,1.9488,1.9488,1.9488,1.9488,1.9474,1.9474,0,0,0,0,0,0,1.9444,1.9446,1.9453,1.9454,1.9453,1.9461,1.9463,1.9464,1.9473,1.9474,1.9472,1.9473,1.9482,1.9482,1.9483,1.9475,1.9488,1.9488,1.9488,1.9474,1.9474,1.9473,0,0,0,0,0,0,1.9443,1.9444,1.9453,1.945,1.9451,1.9461,1.9462,1.9464,1.9466,1.9474,1.9476,1.9472,1.9482,1.9483,1.9481,1.9476,1.9488,1.9488,1.9475,1.9474,1.9474,1.9459,0,0,0,0,0,0,1.9443,1.9444,1.9441,1.945,1.9452,1.9451,1.9462,1.9464,1.9466,1.9467,1.9474,1.9476,1.9483,1.9481,1.9481,1.9476,1.9488,1.9475,1.9475,1.9474,1.946,1.9458,1.9456,0,0,0,0,0,1.9443,1.9437,1.9441,1.9442,1.9449,1.945,1.9451,1.946,1.9465,1.9463,1.9468,1.9475,1.9476,1.948,1.9481,1.9476,1.9476,1.9475,1.9474,1.9461,1.9458,1.9456,0,0,0,0,0,0,1.9427,1.9438,1.9443,1.944,1.9444,1.9453,1.945,1.9457,1.9459,1.946,1.947,1.9472,1.9468,1.9472,1.9476,1.9469,1.9477,1.9476,1.9467,1.9465,1.9463,1.9462,1.9488,0,0,0,0,0,1.9423,1.9424,1.9433,1.9429,1.9431,1.944,1.9441,1.9447,1.9452,1.9454,1.9459,1.9463,1.9464,1.9464,1.9466,1.946,1.9462,1.9457,1.9455,1.9454,1.9453,1.945,1.9448,1.9471,1.9471,1.9471,0,0,1.9415,1.9421,1.9421,1.9426,1.943,1.943,1.9442,1.9441,1.9441,1.9453,1.9452,1.9456,1.9461,1.9457,1.9456,1.946,1.9447,1.9453,1.9451,1.9451,1.9449,1.9447,1.9445,1.947,1.947,1.947,0,0,1.94,1.9405,1.9403,1.9407,1.9413,1.9419,1.9418,1.9426,1.9429,1.9428,1.9437,1.9437,1.9439,1.9442,1.9444,1.9431,1.9437,1.9431,1.9421,1.9418,1.9417,1.9415,1.9411,1.9409,1.943,1.943,1.943,0,1.939,1.9391,1.94,1.94,1.9402,1.9413,1.941,1.9413,1.9419,1.942,1.9425,1.9428,1.9432,1.9429,1.9426,1.9427,1.9426,1.943,1.9416,1.9415,1.9414,1.9409,1.9407,1.9429,1.9429,1.9429,1.9429,0,1.9377,1.9378,1.9375,1.9381,1.9383,1.9381,1.939,1.939,1.9396,1.9402,1.94,1.9405,1.9408,1.9408,1.9414,1.9406,1.9408,1.9414,1.9423,1.941,1.9407,1.9405,1.9428,1.9428,1.9428,1.9429,0,0,1.9353,1.9365,1.9364,1.9367,1.9374,1.9375,1.9373,1.9377,1.9377,1.938,1.9379,1.9381,1.9386,1.9388,1.9394,1.9392,1.9381,1.9399,1.9399,1.9395,1.9373,1.9369,1.9367,1.9386,1.9386,1.9385,1.9373,0,1.934,1.9339,1.9348,1.9344,1.9345,1.9356,1.9354,1.9359,1.9364,1.9365,1.937,1.9371,1.9378,1.938,1.9378,1.9383,1.9377,1.9384,1.9385,1.9385,1.9383,1.9365,1.936,1.9348,1.9372,1.9371,1.9371,0,1.9325,1.9329,1.9325,1.9333,1.9334,1.9333,1.9336,1.9337,1.9342,1.9346,1.9348,1.9355,1.9354,1.9362,1.9361,1.9365,1.9366,1.9368,1.9368,1.9369,1.9377,1.9365,1.9345,1.9343,1.9369,1.9369,1.9369,0,1.9308,1.9312,1.931,1.9313,1.9322,1.9321,1.9324,1.933,1.9331,1.9334,1.9335,1.9338,1.9339,1.9341,1.9349,1.9354,1.9346,1.9355,1.9349,1.9349,1.9347,1.9347,1.9327,1.9347,1.9347,1.9347,1.9347,0,1.9293,1.929,1.9303,1.9302,1.93,1.9309,1.9306,1.9311,1.9316,1.9316,1.9325,1.9324,1.9334,1.9335,1.9341,1.9338,1.9339,1.9342,1.9343,1.9341,1.9341,1.9342,1.9343,1.9347,1.9347,1.9347,1.9347,0,1.9273,1.9282,1.9281,1.929,1.9292,1.929,1.9297,1.9297,1.9302,1.9302,1.9303,1.9311,1.9312,1.932,1.9323,1.9327,1.9322,1.9325,1.9321,1.9322,1.9316,1.9317,1.9296,1.9294,1.9315,1.9315,1.9315,0,1.9263,1.9262,1.9271,1.9272,1.9275,1.9276,1.9278,1.9287,1.9289,1.9294,1.9293,1.9295,1.9297,1.9298,1.9305,1.9307,1.931,1.9303,1.931,1.9308,1.931,1.931,1.931,1.9301,1.9301,1.93,1.93,0,1.9244,1.9249,1.9251,1.9255,1.9257,1.926,1.9264,1.9264,1.9274,1.9275,1.9277,1.9278,1.9282,1.9283,1.9287,1.929,1.9297,1.9298,1.9297,1.9294,1.9292,1.9293,1.9317,1.9298,1.9298,1.9299,1.9299,1.9299,1.9229,1.9229,1.9235,1.9237,1.9241,1.9245,1.9245,1.925,1.9252,1.9256,1.9261,1.9262,1.9267,1.9272,1.9275,1.9275,1.9279,1.9278,1.9277,1.9277,1.9276,1.9292,1.9276,1.9276,1.9276,1.9276,1.9276,0,1.9211,1.9216,1.9218,1.9223,1.9225,1.9232,1.9236,1.9237,1.9238,1.9242,1.9245,1.9246,1.9248,1.9255,1.9257,1.9256,1.926,1.9257,1.9257,1.9258,1.9272,1.9273,1.9254,1.9254,1.9254,1.9254,1.9254,1.9254,1.9202,1.9201,1.9206,1.9207,1.9212,1.9213,1.9215,1.9218,1.9222,1.9224,1.9226,1.923,1.9235,1.9238,1.924,1.9242,1.9242,1.9238,1.9241,1.9254,1.9257,1.9259,1.9259,1.9238,1.9238,1.9227,1.9227,1.9227]}]]